CST,Max TemperatureF,Mean TemperatureF,Min TemperatureF,Max Dew PointF,MeanDew PointF,Min DewpointF,Max Humidity, Mean Humidity, Min Humidity, Max Sea Level PressureIn, Mean Sea Level PressureIn, Min Sea Level PressureIn, Max VisibilityMiles, Mean VisibilityMiles, Min VisibilityMiles, Max Wind SpeedMPH, Mean Wind SpeedMPH, Max Gust SpeedMPH,PrecipitationIn, CloudCover, Events, WindDirDegrees
2013-1-1,19,12,6,18,11,1,100,89,79,30.19,30.10,29.96,10,6,0,15,6,,0.00,8,Fog-Snow,223
2013-1-2,30,18,6,28,19,3,100,91,75,30.14,29.97,29.89,10,7,0,18,5,23,0.00,8,Fog-Snow,311
2013-1-3,17,10,3,16,8,0,100,87,79,30.29,30.21,30.11,10,9,2,20,12,30,0.00,3,Snow,289
2013-1-4,21,14,8,14,10,5,92,81,68,30.11,30.07,30.03,10,10,10,14,7,,0.00,0,,250
2013-1-5,24,14,3,18,11,0,92,86,74,30.10,29.96,29.87,10,9,3,25,9,34,0.00,2,Snow,299
2013-1-6,24,12,1,19,9,-2,93,88,74,30.19,30.10,29.89,10,9,1,24,8,32,0.00,1,Snow,229
2013-1-7,30,24,17,25,20,16,100,87,75,29.95,29.91,29.85,10,10,10,22,11,,0.01,0,Thunderstorm,236
2013-1-8,30,21,12,28,21,10,100,90,80,29.98,29.82,29.69,10,8,1,15,7,,0.00,1,,203
2013-1-9,33,27,21,28,25,18,93,84,74,30.29,30.18,30.00,10,10,10,20,10,18,0.00,0,,234
2013-1-10,35,32,28,34,29,21,100,85,65,30.18,29.92,29.56,10,8,1,21,17,25,0.03,4,Rain,184
2013-1-11,35,27,17,36,32,16,100,99,93,29.56,29.42,29.32,10,2,0,23,14,30,0.01,8,Fog-Snow,217
2013-1-12,17,9,1,16,2,-2,100,79,67,30.05,29.88,29.52,10,9,2,29,19,36,0.00,5,Snow,311
2013-1-13,32,16,1,3,-1,-6,92,79,30,30.20,30.11,30.02,10,10,10,16,10,22,0.00,2,,308
2013-1-14,15,8,1,10,5,-2,92,82,73,30.33,30.25,30.20,10,10,7,12,5,,0.00,2,Snow,248
2013-1-15,24,14,5,16,8,0,92,77,59,30.20,30.05,29.79,10,10,10,17,8,,0.00,1,,221
2013-1-16,39,24,8,32,20,-2,100,82,53,30.22,29.90,29.71,10,10,3,18,13,23,0.00,4,Snow,313
2013-1-17,28,17,6,25,13,-6,93,76,52,30.36,30.29,30.12,10,10,10,12,4,17,0.00,6,,231
2013-1-18,39,32,26,32,28,23,100,84,70,30.10,29.85,29.76,10,10,7,18,12,22,0.00,0,,242
2013-1-19,37,34,33,30,28,27,87,80,70,29.86,29.76,29.73,10,10,10,16,9,23,0.00,1,,283
2013-1-20,,,,,,,,,,,,,,,,,,,,,,
2013-1-21,1,-4,-9,-6,-10,-17,78,70,61,30.32,30.27,30.24,10,10,10,21,15,25,0.00,0,,303
2013-1-22,12,5,-2,10,-2,-8,92,71,56,30.28,30.22,30.11,10,10,10,13,6,,0.00,4,Snow,250
2013-1-23,14,4,-7,10,1,-17,92,78,62,30.51,30.25,30.08,10,10,7,22,10,28,0.00,2,Snow,346
2013-1-24,14,2,-9,7,-5,-17,79,70,61,30.51,30.30,30.03,10,10,10,21,12,28,0.00,2,,159
2013-1-25,23,13,3,19,6,-4,86,74,53,30.22,30.09,29.97,10,10,4,25,12,32,0.00,3,,322
2013-1-26,30,16,1,21,9,-4,80,73,58,30.22,30.07,29.92,10,10,10,17,8,23,0.00,2,,151
2013-1-27,33,30,28,34,28,21,100,88,69,29.92,29.78,29.70,10,5,0,16,10,18,0.05,6,Fog-Rain-Snow,170
2013-1-28,33,32,32,34,33,32,100,100,93,29.81,29.73,29.56,5,1,0,10,4,,0.02,8,Fog-Snow,159
2013-1-29,33,27,21,32,26,16,100,93,80,29.77,29.66,29.54,10,8,2,21,9,32,0.00,7,,5
2013-1-30,21,10,-2,16,6,-9,93,81,71,29.83,29.77,29.73,10,8,4,30,19,37,0.00,7,Snow,339
2013-1-31,-2,-6,-9,-9,-14,-17,84,72,65,30.26,30.09,29.83,10,9,3,26,17,39,0.00,2,,322